{"data":{"norad_id":60530,"intl_designator":"2024-149BQ","name":"TORO","alt_names":[],"object_type":"PAYLOAD","status":"ACTIVE","operator":null,"country":"ROC","launch_date":"2024-08-16","launch_site_code":"AFWTR","launch_vehicle":null,"mission":null,"orbit_class":"UNKNOWN","rcs_meters":null,"size_class":null,"mass_kg":null,"dimensions":null,"purposes":[],"wikipedia_slug":null,"has_3d_model":false,"image_url":null,"decayed_at":null,"tle_current":{"epoch":"2026-05-24T23:15:34.604064Z","epoch_age_seconds":71046,"freshness":"FRESH","line1":"1 60530U 24149BQ  26144.96915051  .00001716  00000+0  15679-3 0  9992","line2":"2 60530  97.6794 220.0714 0001930  87.9879 272.1563 14.96326445 96482","mean_motion":14.96326445,"eccentricity":0.000193,"inclination_deg":97.6794,"raan_deg":220.0714,"arg_perigee_deg":87.9879,"mean_anomaly_deg":272.1563,"bstar":0.00015679,"rev_number":9648,"period_min":96.235684720522,"perigee_km":576.91604754494,"apogee_km":579.60121625886,"semimajor_km":6956.3956319019,"source":"CELESTRAK","updated_at":"2026-05-25T13:38:02.126260Z"}}}